Regional Weather Roundup
Issued by NWS

Home | Current Version | Previous Version | Text Only | Print | Product List | Glossary Off
Versions: 1 2 3 4 5 6 7 8 9 10 11 12 13 14 15 16 17 18 19 20 21 22 23 24 25 26 27 28 29 30 31 32 33 34 35 36 37 38 39 40 41 42 43 44 45 46 47 48 49 50

748
ASUS43 KIND 242059
RWRIN

WEATHER ROUNDUP FOR INDIANA
NATIONAL WEATHER SERVICE INDIANAPOLIS IN
500 PM EDT TUE APR 24 2018

NOTE: "FAIR" INDICATES FEW OR NO CLOUDS BELOW 12,000 FEET WITH NO
SIGNIFICANT WEATHER AND/OR OBSTRUCTIONS TO VISIBILITY.

* - STATION DOES NOT REPORT WEATHER SUCH AS PRECIPITATION OR FOG.

+ - STATION NOT QUALITY CONTROLLED BY THE NATIONAL WEATHER SERVICE.
    USE DATA WITH CAUTION...ESPECIALLY DEWPOINT AND RELATIVE
    HUMIDITY OBSERVATIONS.

INZ001>003-010>013-019-020-242200-
NORTHWEST INDIANA

CITY           SKY/WX    TMP DP  RH WIND       PRES   REMARKS
KNOX *+        CLOUDY    59  50  72 NE7       29.96F
MONTICELLO +   CLOUDY    58  50  74 N8        29.95F
RENSSELAER +   CLOUDY    61  46  59 NE12      29.96S

$$

LMZ046-743>745-242200-
SOUTHERN LAKE MICHIGAN

STATION/POSITION TIME  TEMP    WIND        PRES    WAVE
                       AIR SEA DIR/SP/G            HT
                 (UTC) (F)     (DEG/KT/KT) (MB)    (FT)
BURNS HARBOR     2040   45      30/  5/  6 1016.6F
MICHIGAN CITY    2030   43      20/  7/  8   N/A

$$

INZ004-005-014>016-021>024-242200-
NORTH CENTRAL INDIANA

CITY           SKY/WX    TMP DP  RH WIND       PRES   REMARKS
GOSHEN         CLOUDY    57  49  74 E9        29.97F
ROCHESTER +    CLOUDY    59  52  77 N5        29.96F
SOUTH BEND     CLOUDY    62  49  62 VRB6      29.97F
WARSAW +       CLOUDY    55  50  82 E9        29.96F

$$

INZ006>009-017-018-025>027-242200-
NORTHEAST INDIANA

CITY           SKY/WX    TMP DP  RH WIND       PRES   REMARKS
ANGOLA *+      PTSUNNY   54  52  94 NE8       29.97S FOG
FORT WAYNE     DRIZZLE   55  52  89 NE10      29.95F
KENDALLVILLE + DRIZZLE   53  49  86 CALM      29.97F

$$

INZ028-029-035-036-043>045-051>053-242200-
WEST CENTRAL INDIANA

CITY           SKY/WX    TMP DP  RH WIND       PRES   REMARKS
CRAWFORDSVL +  CLOUDY    55  53  95 N7        29.94F
GREENCASTLE +  CLOUDY    54  52  94 N7        29.94S
LAFAYETTE      CLOUDY    59  52  77 N12       29.94F
TERRE HAUTE    CLOUDY    59  52  77 NE7       29.94S

$$

INZ030>032-037>040-046>048-054>057-064-065-242200-
CENTRAL INDIANA

CITY           SKY/WX    TMP DP  RH WIND       PRES   REMARKS
COLUMBUS       CLOUDY    55 N/A N/A CALM      29.92S
GREENWOOD *+   CLOUDY    55  53  91 N7        29.92F
INDIANAPOLIS   LGT RAIN  56  52  86 N9        29.92F
-EAGLE CREEK   CLOUDY    56  52  86 N5        29.92F
KOKOMO +       CLOUDY    55  53  93 NE7       29.95F
MT COMFORT *+  CLOUDY    54  54 100 N9        29.92F
SHELBYVILLE    LGT RAIN  57  52  83 NE5       29.91S
ZIONSVILLE +   CLOUDY    54  53  98 N6        29.94S

$$

INZ033-034-041-042-049-050-058-059-242200-
EAST CENTRAL INDIANA

CITY           SKY/WX    TMP DP  RH WIND       PRES   REMARKS
MUNCIE         LGT RAIN  56  53  90 NE6       29.93F
RICHMOND +     CLOUDY    52  52 100 E9        29.93S FOG

$$

INZ060-061-067>069-081>083-085>088-242200-
SOUTHWEST INDIANA

CITY           SKY/WX    TMP DP  RH WIND       PRES   REMARKS
EVANSVILLE     CLOUDY    58  54  86 N12       29.93F
HUNTINGBURG +  CLOUDY    57  53  86 NW13      29.91F

$$

INZ062-063-066-070>080-084-089>092-242200-
SOUTH CENTRAL AND SOUTHEAST INDIANA

CITY           SKY/WX    TMP DP  RH WIND       PRES   REMARKS
BLOOMINGTON    LGT RAIN  56  54  93 N6        29.92S FOG
FRENCH LICK *+ CLOUDY    55 N/A N/A CALM      29.92S
SEYMOUR +      CLOUDY    57  55  94 N6        29.90F

$$





USA.gov is the U.S. government's official web portal to all federal, state and local government web resources and services.